Theta_e
316 316 316 316 316 316 316 317 317 318 317 317 317 317 317 318 318 318 319 320 320 320 320 321 323 324 319 316 319 331 354 347 330 319 315 315 314 314 310 313 316 316 322 324 324 319 320
315 315 316 316 316 316 316 316 316 316 316 317 317 316 316 317 318 318 319 319 319 319 320 321 324 325 320 309 326 324 327 321 318 317 317 319 316 317 313 314 313 317 320 320 320 320 319
314 315 314 315 315 315 315 316 316 316 316 316 316 316 316 316 317 318 318 318 318 318 320 322 325 325 315 311 321 323 321 317 319 318 317 320 319 313 314 311 317 317 313 316 318 319 318
314 314 314 315 314 315 315 315 315 315 315 315 315 315 316 316 316 317 317 317 317 318 320 323 328 320 310 322 320 320 322 321 319 318 318 319 320 315 312 315 314 311 311 306 317 319 319
313 313 314 314 314 314 314 314 314 314 314 315 315 315 315 315 316 316 315 315 317 321 323 326 319 314 313 324 316 317 316 319 319 318 318 323 315 309 311 305 303 309 303 308 312 319 318
313 313 313 314 314 313 313 313 313 314 314 315 315 315 315 315 315 315 314 316 320 321 322 322 323 311 316 314 317 318 315 318 317 316 316 314 309 303 302 299 296 303 306 309 310 315 316
312 313 313 313 313 313 313 313 313 313 313 314 314 314 314 314 314 314 310 308 312 314 311 309 312 311 315 318 319 316 318 317 316 312 305 310 301 298 301 305 308 309 309 310 313 316 312
312 312 312 312 312 312 312 312 312 313 313 313 314 314 314 314 313 313 309 308 310 310 304 313 314 315 319 317 312 315 317 309 310 304 307 305 299 307 310 309 308 308 310 309 314 316 312
311 312 312 312 312 312 312 312 312 312 313 313 313 313 313 312 312 312 308 312 316 313 302 308 311 310 312 312 310 311 312 311 309 306 305 301 306 313 310 307 306 302 307 309 309 313 315
311 311 311 312 312 311 311 311 311 312 312 312 312 313 312 310 308 308 311 315 315 313 297 304 306 309 312 311 307 316 315 313 309 305 307 304 309 309 307 306 305 297 308 309 308 304 297
311 311 311 311 311 311 311 311 311 312 312 312 312 312 311 309 306 305 312 314 313 310 289 308 308 315 311 308 309 310 315 310 307 307 305 303 306 305 305 306 307 302 309 307 308 301 302
311 310 310 311 311 311 311 311 312 312 312 312 311 311 310 311 308 310 313 313 310 297 292 304 309 306 305 306 309 311 310 311 313 308 308 306 311 308 306 309 309 309 306 305 303 298 292
310 310 310 310 310 310 311 311 312 312 311 311 310 309 307 311 306 310 310 307 295 291 305 302 302 305 303 303 305 307 306 303 301 296 298 305 307 309 311 305 307 304 299 292 292 292 292
310 310 310 310 310 311 311 311 311 311 311 310 309 308 310 311 310 311 308 300 291 301 300 307 306 305 302 304 304 306 304 301 306 303 299 297 297 306 310 305 301 301 299 292 289 292 297
309 309 310 310 311 311 311 311 311 311 310 309 307 312 310 311 313 312 303 293 296 301 306 305 305 302 300 304 304 304 302 302 306 305 298 296 300 311 311 309 306 300 298 303 294 293 294
310 309 309 310 310 311 311 311 311 311 310 308 304 308 308 317 315 306 299 295 300 306 307 306 300 304 300 302 301 300 302 306 306 309 307 302 296 306 311 308 308 303 306 297 296 289 289
310 309 309 310 310 310 311 311 311 310 308 307 305 304 312 316 312 304 294 297 302 307 308 304 302 301 302 302 303 302 302 307 308 308 306 304 300 302 307 303 301 301 298 301 301 297 291
309 309 310 310 310 310 311 311 310 309 307 308 312 303 315 312 300 301 297 302 303 306 309 306 305 304 301 303 302 303 303 307 310 308 303 304 302 297 301 308 310 306 303 301 296 294 298
308 308 309 310 310 310 310 310 310 308 307 303 307 309 314 310 294 295 300 302 305 305 307 304 304 305 305 301 299 305 307 312 311 308 303 308 299 292 296 301 307 304 304 301 302 300 296
308 308 309 309 310 310 310 310 310 309 308 303 308 306 307 307 304 299 298 301 302 308 307 307 305 305 302 300 302 303 305 310 312 310 322 311 301 299 292 298 305 305 307 305 301 298 298
308 308 308 308 309 310 310 311 310 309 308 303 309 308 311 300 300 300 301 302 302 302 307 306 303 303 300 296 301 301 305 306 311 316 309 304 298 302 303 305 306 305 306 307 304 301 297
308 308 308 309 309 309 310 310 310 309 307 306 306 306 307 305 309 306 301 301 302 304 305 303 301 304 303 297 300 300 302 302 305 314 312 307 298 305 299 305 306 304 307 309 308 309 307
308 308 308 309 308 308 309 310 310 308 305 311 313 312 309 304 303 303 302 305 304 306 307 308 307 304 303 305 310 309 308 306 305 305 308 311 302 301 296 305 304 299 304 307 310 309 309
309 308 308 309 308 308 308 310 310 308 306 303 312 309 304 301 303 304 306 306 305 308 305 308 308 306 313 316 314 312 309 307 309 307 308 307 308 307 299 302 293 303 310 310 308 311 312
310 309 308 309 308 307 308 309 310 309 307 302 309 308 306 301 304 304 305 307 307 309 308 307 309 312 315 312 305 302 301 302 305 308 307 306 306 300 297 296 302 306 309 311 306 311 316
308 310 309 309 309 307 307 308 309 309 307 303 308 313 307 303 301 305 302 308 303 303 306 308 313 315 313 308 304 297 294 300 300 302 306 305 309 304 299 296 296 304 315 318 316 306 318
308 310 309 309 309 307 307 307 308 308 307 303 305 313 308 303 307 306 302 303 307 305 304 308 308 311 313 303 300 299 297 303 296 298 299 299 300 300 301 297 301 319 316 318 299 306 319
309 310 309 309 309 307 307 307 308 308 308 304 305 311 307 304 306 309 307 305 305 304 301 304 307 311 309 303 300 300 300 302 302 305 306 301 298 298 300 298 296 326 322 308 312 319 321
310 310 310 309 309 307 307 306 307 307 307 306 305 312 314 306 304 309 310 309 308 308 304 306 304 310 310 306 307 308 306 307 305 300 310 304 309 308 310 307 316 320 322 325 319 319 321
Wind_Speed
12 13 14 14 15 16 16 16 16 17 18 18 18 19 19 20 20 21 21 21 20 20 19 17 15 12 2 4 7 6 6 5 5 4 6 9 10 9 10 10 12 10 17 18 14 7 15
13 13 14 15 15 15 16 17 17 18 18 18 19 19 19 20 20 20 21 21 21 21 19 17 15 14 2 6 5 12 10 8 9 9 9 13 9 12 9 10 9 10 8 9 9 7 3
12 13 14 15 16 16 16 17 18 18 18 19 19 19 19 20 21 21 21 22 22 21 18 15 11 5 6 14 2 11 12 11 9 12 14 11 12 3 9 10 10 16 10 8 6 4 6
13 14 14 14 15 16 17 18 18 18 19 19 19 20 20 21 22 21 22 23 24 22 17 13 5 3 9 10 8 8 10 9 11 7 8 9 6 6 4 10 14 12 11 5 9 11 12
13 14 15 15 16 16 17 18 18 19 19 19 20 21 21 21 22 23 23 27 26 19 12 6 3 3 9 2 6 9 7 11 8 9 9 10 2 3 8 6 7 5 4 6 10 7 14
13 14 15 16 16 16 16 17 18 19 20 19 20 21 22 22 23 23 27 27 7 8 5 7 7 5 7 9 6 8 11 12 5 5 6 6 3 4 5 1 7 4 4 3 6 25 10
14 14 15 16 16 17 17 17 18 19 19 19 21 22 23 23 24 20 16 8 5 3 3 8 5 6 17 12 3 2 6 6 4 6 7 7 3 7 13 13 16 12 10 11 9 17 3
14 15 15 15 16 16 17 18 19 19 21 21 21 22 23 24 24 21 4 4 3 6 9 12 18 19 20 6 3 8 8 7 7 8 9 8 7 14 13 15 14 13 14 16 10 11 4
13 15 16 16 16 17 17 18 19 20 20 21 21 22 23 26 27 7 5 9 6 9 4 9 16 11 15 8 9 13 7 9 8 7 11 9 15 12 13 10 8 6 11 11 14 10 26
11 13 15 17 17 17 18 18 19 20 20 20 21 22 22 28 3 7 6 4 6 6 3 8 9 12 15 9 14 13 12 9 7 12 11 9 13 13 8 4 5 6 10 10 12 7 4
11 12 14 16 17 17 19 20 20 20 21 21 21 21 22 9 8 5 8 13 7 4 3 8 11 7 9 14 7 11 13 7 10 11 6 11 9 9 6 6 5 9 9 6 5 6 3
12 12 13 14 16 17 18 18 20 20 21 22 21 20 21 2 4 11 14 14 5 1 7 7 5 5 8 10 12 13 8 7 5 10 11 9 11 4 8 7 8 6 6 8 4 2 5
11 12 13 14 15 17 17 18 19 20 22 23 23 19 11 7 6 10 13 4 0 5 6 6 6 10 11 9 11 13 12 8 6 2 6 10 11 8 5 6 8 6 3 5 5 4 4
10 12 13 14 15 16 17 18 20 21 22 24 26 26 9 9 7 8 3 1 6 7 14 12 14 8 13 11 11 14 7 8 9 9 5 7 9 10 11 11 9 7 9 7 6 3 4
10 11 13 14 15 15 17 18 20 21 22 24 29 2 5 6 13 6 1 4 7 7 10 7 12 12 6 10 10 14 12 9 10 12 9 3 11 10 11 9 8 10 3 13 3 4 3
10 11 12 14 14 16 17 19 21 22 23 19 6 5 7 7 12 4 2 5 6 14 17 15 8 9 3 8 4 6 11 12 12 11 11 10 7 9 11 8 8 9 7 3 3 2 4
12 12 13 12 14 16 17 19 21 23 27 20 3 3 3 11 6 2 5 6 10 18 16 12 8 9 11 10 12 14 7 9 11 14 9 10 7 16 6 2 8 3 5 3 4 5 6
11 12 13 13 13 15 17 18 19 21 29 1 5 4 6 6 3 4 7 6 11 18 17 6 5 8 7 11 10 10 8 6 7 10 10 8 8 6 9 10 8 9 7 7 6 9 1
10 11 12 13 14 16 16 18 17 16 14 6 4 5 3 5 4 7 8 16 18 19 17 5 3 6 8 8 6 9 11 14 8 12 5 3 2 0 11 10 6 3 7 4 4 3 6
9 9 11 12 13 14 16 17 17 16 12 3 4 3 1 3 6 6 7 9 15 18 4 5 7 9 7 7 8 7 12 11 17 4 4 6 2 4 7 9 2 4 19 5 3 1 6
9 8 9 11 12 14 16 17 17 18 17 2 4 5 3 4 6 10 7 10 10 9 6 3 4 8 9 4 7 7 8 10 13 7 6 4 0 3 8 8 9 8 9 1 7 3 2
11 9 8 10 11 13 15 17 19 20 23 3 3 4 5 8 8 3 8 6 7 11 2 6 6 11 9 4 7 8 8 5 4 10 9 6 4 2 6 8 11 15 15 10 5 7 13
12 10 8 8 11 13 15 16 17 18 18 3 4 5 3 7 7 3 6 4 5 6 10 8 4 2 6 5 8 8 9 5 5 4 6 5 2 1 7 6 9 8 8 5 4 4 5
12 11 9 7 10 12 14 15 16 14 11 3 4 4 3 6 8 9 11 15 15 2 4 9 9 7 1 8 8 7 8 7 8 9 2 5 4 1 4 5 6 9 10 14 11 11 12
14 12 9 8 8 10 12 15 16 16 14 4 4 4 4 5 9 14 22 4 5 4 1 5 12 4 5 6 4 6 4 5 6 8 11 3 4 3 3 6 7 10 10 6 3 11 12
16 12 9 8 8 10 12 14 15 16 17 4 4 3 3 4 4 12 14 10 4 4 5 11 7 3 5 2 1 3 3 1 4 4 8 8 4 5 3 3 6 6 9 13 9 6 7
17 13 10 8 7 8 11 13 15 16 15 5 5 5 3 3 4 7 6 6 6 6 4 6 8 5 3 1 3 4 5 5 5 8 7 4 4 6 5 5 6 3 8 11 2 4 6
17 13 10 9 7 7 9 11 13 15 16 9 7 7 1 4 8 7 8 7 6 7 4 7 7 7 5 2 4 5 4 6 4 3 2 4 5 5 3 5 10 9 6 6 9 8 9
16 13 10 9 7 6 8 10 12 14 16 14 4 8 5 3 5 7 9 6 4 4 1 4 4 3 3 4 5 4 4 5 3 4 8 6 2 4 2 4 5 3 5 3 11 17 10
Wind_Direction
19 15 13 11 9 4 0 0 357 355 352 350 345 345 340 337 332 329 323 318 313 309 310 313 319 326 355 240 239 150 148 201 210 205 231 247 263 268 279 287 300 232 221 239 258 154 129
17 11 9 9 7 4 359 358 356 353 350 347 344 341 337 333 330 323 317 312 308 308 308 314 319 318 239 279 161 158 180 183 233 199 242 243 249 264 276 284 291 288 332 318 10 360 188
14 11 6 4 3 1 359 356 354 351 348 345 341 337 335 330 326 320 315 310 306 301 302 308 307 308 275 243 268 180 174 215 211 218 242 263 249 331 325 317 303 311 302 17 346 330 317
10 7 4 3 2 358 356 355 352 348 345 342 338 335 332 328 324 319 314 308 300 294 294 286 269 278 255 278 215 246 205 257 244 253 268 288 328 341 314 289 299 299 23 31 317 287 280
5 1 358 358 359 357 354 351 349 347 343 340 337 333 330 327 322 321 317 306 292 283 257 264 254 214 263 255 227 234 240 243 247 219 246 259 17 266 310 296 307 15 81 37 323 299 300
2 358 355 354 354 353 352 349 347 345 342 338 335 331 328 325 324 325 322 296 291 325 198 225 257 310 252 250 233 215 221 237 283 314 258 222 210 232 286 258 249 200 136 86 255 290 297
355 352 354 352 350 349 348 347 345 343 340 337 334 330 328 325 320 329 343 346 350 11 231 237 206 255 292 228 121 229 289 277 206 291 281 261 179 228 234 234 248 257 140 169 241 265 304
350 348 349 347 348 347 346 345 342 341 338 335 332 330 326 321 317 318 269 275 31 256 298 267 270 270 262 273 290 235 217 222 199 231 257 286 243 239 231 240 246 268 161 195 281 237 216
348 345 344 344 345 344 345 344 341 338 335 333 331 329 326 323 314 296 227 263 319 298 270 267 237 237 247 237 228 257 204 208 231 228 239 228 250 249 234 259 268 305 179 202 222 214 229
345 346 341 341 341 343 343 341 338 335 331 329 328 327 329 328 325 339 270 235 290 317 293 268 215 237 234 213 244 227 253 189 232 239 255 229 264 272 272 284 303 323 280 271 278 290 249
338 344 341 339 339 342 341 338 333 332 330 328 327 327 324 318 305 291 316 331 332 13 296 257 223 171 173 198 243 208 220 248 215 255 236 262 268 272 300 222 264 231 267 286 315 337 29
329 335 339 338 337 341 339 333 330 329 327 325 322 323 330 110 206 249 290 294 344 281 243 257 139 142 168 213 227 260 198 227 202 250 279 260 266 300 247 282 224 273 305 341 317 15 352
323 328 335 336 337 339 335 331 330 328 326 322 317 312 307 301 241 338 327 342 254 221 220 264 192 171 194 220 214 238 192 211 196 248 274 295 283 267 263 303 304 259 20 337 336 347 216
318 324 330 334 336 336 331 332 329 328 327 322 315 307 245 220 254 300 270 334 235 231 245 289 314 239 200 193 225 217 218 191 211 226 260 213 294 231 217 195 216 222 161 165 230 133 244
310 320 326 332 334 334 328 333 330 329 328 326 313 232 238 225 214 252 340 216 201 252 250 277 322 309 261 201 198 198 216 209 210 188 206 275 271 292 239 204 179 266 198 216 212 277 92
306 314 323 330 332 331 333 335 334 331 328 331 312 276 252 207 170 176 197 250 251 271 283 311 298 295 233 292 285 208 197 219 224 222 182 239 268 280 309 186 212 179 221 321 333 232 280
304 312 319 325 329 334 337 338 336 334 328 330 230 257 261 155 135 160 218 235 258 265 278 291 312 327 341 330 333 310 259 226 215 235 217 203 163 274 22 232 182 262 272 261 136 135 177
302 312 318 324 332 337 338 336 340 339 335 131 295 265 197 116 132 209 233 236 258 279 284 243 351 302 299 304 324 325 318 247 284 226 220 231 169 239 236 269 263 197 212 187 130 282 103
295 310 317 323 332 334 336 340 342 344 4 322 276 269 182 147 214 234 244 244 257 266 266 179 246 252 285 298 341 334 331 321 3 24 44 306 333 183 326 335 356 330 274 209 193 122 233
278 300 315 325 330 334 336 338 339 338 348 304 279 267 235 193 252 274 295 277 244 254 267 340 335 334 299 301 297 285 312 319 325 11 356 59 89 165 203 216 152 63 303 287 81 90 239
263 281 309 323 331 335 336 339 339 336 337 252 233 265 26 233 225 226 245 283 303 263 155 232 314 289 285 323 319 300 311 316 327 11 319 113 259 350 310 321 323 299 227 333 314 34 358
254 269 295 319 330 335 337 342 345 340 336 239 297 346 332 295 307 313 227 281 303 315 352 167 203 262 281 287 269 286 314 356 323 341 354 333 272 337 295 311 311 303 300 211 229 235 291
246 260 283 313 327 337 341 346 352 352 339 304 324 328 321 289 314 310 285 274 269 270 290 297 8 276 270 315 350 318 305 269 278 337 326 344 358 31 273 300 314 316 283 204 177 196 160
240 253 272 300 322 335 341 346 354 2 15 284 277 305 296 296 321 303 273 245 231 290 8 358 348 353 11 16 353 335 335 325 334 312 298 296 333 329 244 312 264 253 273 284 263 212 215
241 244 260 287 313 331 342 346 352 354 359 292 298 333 321 301 317 326 337 62 41 105 19 288 288 284 26 41 11 329 314 351 300 286 295 284 251 286 170 245 277 316 297 356 7 8 115
244 240 248 274 302 325 339 345 351 353 358 316 301 310 291 303 352 343 319 15 36 344 311 226 296 129 77 77 252 233 254 311 262 265 242 274 218 164 279 276 271 263 324 334 311 66 33
230 232 238 257 287 315 331 343 350 355 358 328 286 295 276 277 314 352 1 349 1 4 358 40 338 322 118 208 233 238 237 205 235 256 248 257 279 211 239 244 261 338 307 316 11 152 133
220 220 225 244 270 301 322 338 347 352 359 355 277 273 305 312 290 6 354 9 351 29 32 321 337 0 352 289 223 247 247 230 220 274 241 224 205 240 237 226 251 341 326 93 174 148 135
211 208 214 231 249 280 309 330 340 350 357 349 271 340 341 234 275 307 292 298 308 344 13 324 254 23 342 6 349 337 341 349 29 3 341 44 60 320 336 199 257 262 193 216 171 149 171